Acapulco, Mexico

2:25 AM CDT on September 21, 2017 (GMT -0500)
Gen Juan N Alvarez International

Weather History for MMAA - December, 2013

Change the Weather History Date:

Monday, December 9, 2013

  Actual Average Record
Temperature  
Mean Temperature 82 °F -  
Max Temperature 92 °F 86 °F 94 °F (2015)
Min Temperature 73 °F 71 °F 69 °F (1999)
Cooling Degree Days 18    
Growing Degree Days 32 (Base 50)    
Moisture  
Dew Point 74 °F    
Average Humidity 79    
Maximum Humidity 94    
Minimum Humidity 59    
Precipitation  
Precipitation 0.00 in - - ()
Sea Level Pressure  
Sea Level Pressure 29.91 in    
Wind  
Wind Speed 4 mph ()    
Max Wind Speed 8 mph    
Max Gust Speed -    
Visibility 7.8 miles    
Events      
Averages and records for this station are not official NWS values.
T = Trace of Precipitation, MM = Missing Value Source: Averaged Metar Reports

Daily Weather History Graph

Daily Weather History Graph

Search for Another Location

Airport or City:

Trip Planner

Search our weather history database for the weather conditions in past years. The results will help you decide how hot, cold, wet, or windy it might be!

Date:

Astronomy

Dec. 09, 2013 Rise Set
Actual Time 6:56 AM CST 6:06 PM CST
Civil Twilight 6:33 AM CST 6:29 PM CST
Nautical Twilight 6:06 AM CST 6:56 PM CST
Astronomical Twilight 5:39 AM CST 7:23 PM CST
Moon 12:42 PM CST (12/9) 12:11 AM CST (12/9)
Length of Visible Light 11h 56m
Length of Day
11h 09m
Waxing Crescent, 51% of the Moon is Illuminated
Dec 9
Waxing Crescent
Dec 17
Full
Dec 25
Last Quarter
Jan 1
New
Jan 7
First Quarter

Hourly Weather History & Observations

Time (CST) Temp. Heat Index Dew Point Humidity Pressure Visibility Wind Dir Wind Speed Gust Speed Precip Events Conditions
12:43 AM 77.0 °F - 73.4 °F 89% 29.92 in 8.0 mi North 3.5 mph - N/A   Clear
1:44 AM 77.0 °F - 73.4 °F 89% 29.92 in 8.0 mi North 3.5 mph - N/A   Clear
2:45 AM 75 °F - 73 °F 90% 29.91 in 6 mi WNW 2.2 mph - -   Scattered Clouds
2:46 AM 77.0 °F - 71.6 °F 83% 29.92 in 8.0 mi NNW 5.8 mph - N/A   Clear
3:44 AM 77.0 °F - 71.6 °F 83% 29.90 in 8.0 mi North 5.8 mph - N/A   Clear
4:44 AM 75.2 °F - 73.4 °F 94% 29.90 in 8.0 mi Calm Calm - N/A   Clear
5:43 AM 75.2 °F - 71.6 °F 89% 29.90 in 8.0 mi Calm Calm - N/A   Clear
5:45 AM 75 °F - 73 °F 92% 29.92 in 6 mi North 2.2 mph - -   Scattered Clouds
6:46 AM 75.2 °F - 69.8 °F 83% 29.92 in 7.0 mi North 6.9 mph - N/A   Scattered Clouds
7:44 AM 75.2 °F - 69.8 °F 83% 29.95 in 7.0 mi NNW 5.8 mph - N/A   Scattered Clouds
8:50 AM 79 °F - 72 °F 75% 29.97 in 12 mi NW 4.5 mph - -   Scattered Clouds
8:50 AM 78.8 °F - 71.6 °F 78% 29.96 in 8.0 mi North 5.8 mph - N/A   Scattered Clouds
9:42 AM 82.4 °F 87.2 °F 71.6 °F 70% 29.97 in 8.0 mi North 4.6 mph - N/A   Scattered Clouds
10:45 AM 84.2 °F 90.9 °F 73.4 °F 70% 29.95 in 8.0 mi Calm Calm - N/A   Scattered Clouds
11:42 AM 86.0 °F 95.1 °F 75.2 °F 70% 29.95 in 6.0 mi SSW 4.6 mph - N/A   Mostly Cloudy
11:50 AM 90 °F - 78 °F 59% 29.94 in 12 mi South 2.2 mph - -   Scattered Clouds
12:42 PM 86.0 °F 96.9 °F 77.0 °F 74% 29.91 in 6.0 mi SSW 5.8 mph - N/A   Scattered Clouds
1:45 PM 86.0 °F 96.9 °F 77.0 °F 74% 29.88 in 7.0 mi SSW 8.1 mph - N/A   Scattered Clouds
2:45 PM 88 °F - 78 °F 64% 29.87 in 12 mi SSW 4.5 mph - -   Scattered Clouds
2:45 PM 86.0 °F 96.9 °F 77.0 °F 74% 29.86 in 7.0 mi WSW 8.1 mph - N/A   Scattered Clouds
3:45 PM 86.0 °F 96.9 °F 77.0 °F 74% 29.85 in 7.0 mi SW 8.1 mph - N/A   Scattered Clouds
4:45 PM 84.2 °F 94.1 °F 77.0 °F 79% 29.85 in 7.0 mi WSW 8.1 mph - N/A   Scattered Clouds
5:45 PM 82.4 °F 90.9 °F 77.0 °F 84% 29.86 in 7.0 mi West 5.8 mph - N/A   Scattered Clouds
5:50 PM 85 °F - 77 °F 71% 29.87 in 12 mi WSW 4.5 mph - -   Scattered Clouds
6:45 PM 82.4 °F 88.2 °F 73.4 °F 74% 29.88 in 7.0 mi West 4.6 mph - N/A   Scattered Clouds
7:45 PM 82.4 °F 88.2 °F 73.4 °F 74% 29.89 in 7.0 mi West 4.6 mph - N/A   Scattered Clouds
8:45 PM 80.6 °F 85.4 °F 73.4 °F 79% 29.91 in 7.0 mi WNW 4.6 mph - N/A   Scattered Clouds
9:42 PM 80.6 °F 85.4 °F 73.4 °F 79% 29.93 in 7.0 mi NNW 1.2 mph - N/A   Scattered Clouds
10:45 PM 78.8 °F - 77.0 °F 94% 29.92 in 7.0 mi NNE 2.3 mph - N/A   Scattered Clouds
11:42 PM 78.8 °F - 75.2 °F 89% 29.95 in 7.0 mi NNW 3.5 mph - N/A   Scattered Clouds